Regional Weather Roundup
Issued by NWS New Orleans/Baton Rouge, LA

Home | Current Version | Previous Version | Graphics & Text | Print | Product List | Glossary On
Versions: 1 2 3 4 5 6 7 8 9 10 11 12 13 14 15 16 17 18 19 20 21 22 23 24 25 26 27 28 29 30 31 32 33 34 35 36 37 38 39 40 41 42 43 44 45 46 47 48 49 50
193
ASUS44 KLIX 240910
RWRLIX
NEW ORLEANS REGIONAL WEATHER ROUNDUP
NATIONAL WEATHER SERVICE NEW ORLEANS LA
300 AM CST MON NOV 24 2014

NOTE: "FAIR" INDICATES FEW OR NO CLOUDS BELOW 12,000 FEET WITH NO
      SIGNIFICANT WEATHER AND/OR OBSTRUCTIONS TO VISIBILITY.
      SKY/WX - SKY CONDITION AND SIGNIFICANT WEATHER.
      TMP - AIR TEMPERATURE.     DP    - DEWPOINT TEMPERATURE.
      RH  - RELATIVE HUMIDITY.   PRES  - PRESSURE.
      HI  - HEAT INDEX.          WCI   - WIND CHILL INDEX.

*  THESE STATIONS ARE NOT NWS OR FAA STATIONS AND ARE NOT UNDER
   NWS QUALITY CONTROL.

LAZ038-040-048-061>063-065>067-069-241000-
SOUTHEAST LOUISIANA

CITY           SKY/WX    TMP DP  RH WIND       PRES   REMARKS
N.O. AUDUBON   NOT AVBL
N.O. INTL ARPT FOG       67  65  93 SW9       29.76R VSB 1
N.O. LAKEFRONT CLOUDY    68  66  93 SW15      29.76R FOG
N.O. DOWNTOWN* CLOUDY    68  64  88 S9        29.76S
SLIDELL        CLOUDY    68  66  93 SW5       29.75S FOG
BATON ROUGE    CLEAR     66  63  90 SW9       29.74R
BOOTHVILLE     FOG       67  67 100 S8        29.78S VSB 1/2
BELLE CHASSE   CLOUDY    68  66  93 SW9       29.76R
BOGALUSA*        N/A     70  64  81 SW9       29.75S
NEW ROADS*       N/A     64  63  98 SW3       29.74R FOG
GONZALES*      FOG       65  65 100 S3        29.74R VSB 1/2
HAMMOND*       CLOUDY    68  64  88 SW6       29.76R
HOUMA*         MOCLDY    68  68  99 S5        29.76R FOG
PORT FOURCHON* SUNNY     70  68  94 SW8G14    29.81R FOG

$$

MSZ070-080>082-241000-
SOUTHERN MISSISSIPPI

CITY           SKY/WX    TMP DP  RH WIND       PRES   REMARKS
MCCOMB         MOCLDY    64  62  93 SW7       29.73R
GULFPORT       FOG       65  65 100 VRB5      29.75S VSB 1/4
BILOXI         FOG       64  64 100 SW6       29.76S VSB 3/4
PASCAGOULA     CLOUDY    67  66  97 VRB6      29.76F FOG

$$

COASTAL OBSERVATIONS
LAKE AND NEARSHORE STATIONS

STATION/POSITION TIME  TEMP    WIND        PRES    WAVE
                       AIR SEA DIR/SP/G            HT/PER
                 (UTC) (F)     (DEG/KT/KT) (MB)    (FT/S)
PASCAGOULA       0900   65     240/  6/  9 1007.2
WAVELAND YACHT   0900   66     230/  7/  9 1006.8
GRAND ISLE       0900   69 65  220/  5/  8 1008.7
SOUTHWEST PASS   0900   70                 1008.9
NEW CANAL        0900   67 56  210/  8/ 12 1007.8
SHELL BEACH      0900   67 55  210/  8/ 10 1007.7

OFFSHORE STATIONS

STATION/POSITION TIME  TEMP    WIND        PRES    WAVE
                       AIR SEA DIR/SP/G            HT/PER
                 (UTC) (F)     (DEG/KT/KT) (MB)    (FT/S)
64 S DAUPHIN ISL 0838   73 72  230/ 12/ 16 1008.8    6/ 7

$$




USA.gov is the U.S. government's official web portal to all federal, state and local government web resources and services.